Flag for Germany Weather past 2 weeks in Norden, Lower Saxony, Germany

Now
51 °F

Fog.


Feels Like: 49 °F
Forecast: 46 / 63 °F
Wind: 6 mph from Northeast

Location: Norderney


UV Index: 0 (Low)

Visibility: 0 mi


Pressure: 30.15 "Hg

Humidity: 96%

Dew point: 50 °F

Location of NordenLocation

Historic Weather in Norden

°F

Norden temperature yesterday

Maximum temperature yesterday: 59 °F (at 12:00 PM)
Minimum temperature yesterday: 49 °F (at 6:00 AM)
Average temperature yesterday: 54 °F

Past Weeks' High & Low Weather Summary

 TemperatureHumidityPressure
High59 °F (Apr 22, 12:00 PM)97% (Apr 9, 8:00 PM)30.47 "Hg (Apr 9, 8:00 PM)
Low40 °F (Apr 16, 7:00 AM)45% (Apr 16, 1:00 PM)29.73 "Hg (Apr 21, 6:00 PM)
Average49 °F83%30.04 "Hg
* Reported Apr 8 2:00 PM — Apr 23 2:00 PM, Norden, Weather by CustomWeather, © 2014

Note: Actual official high and low records may vary slightly from our data, if they occured in-between our weather recording intervals... More about our weather records

Advertising

Historic Weather Conditions — Data for Previous 24 hours

 ConditionsComfort  
Time TempWeatherWind HumidityBarometerVisibility
2:00 PM
Apr 23
51 °FFog.6 mph96%30.15 "Hg0 mi
1:00 PM55 °FFog.3 mph90%30.15 "Hg2 mi
12:00 PM56 °FFog.3 mph88%30.15 "Hg2 mi
11:00 AM55 °FFog.5 mph89%30.14 "Hg2 mi
10:00 AM54 °FFog.3 mph88%30.13 "Hg2 mi
9:00 AM54 °FFog.3 mph89%30.11 "Hg2 mi
8:00 AM52 °FFog.2 mph93%30.10 "Hg2 mi
7:00 AM49 °FFog.2 mph95%30.09 "Hg2 mi
6:00 AM49 °FFog.2 mph95%30.07 "Hg2 mi
5:00 AM50 °FFog.1 mph95%30.06 "Hg1 mi
4:00 AM50 °FFog.2 mph95%30.05 "Hg1 mi
3:00 AM51 °FFog.2 mph93%30.04 "Hg1 mi
2:00 AM51 °FFog.1 mph93%30.03 "Hg1 mi
1:00 AM52 °FFog.1 mph92%30.03 "Hg2 mi
12:00 AM53 °FFog.3 mph92%30.01 "Hg1 mi
11:00 PM
Apr 22
53 °FFog.6 mph92%30.00 "Hg1 mi
10:00 PM54 °FFog.3 mph90%29.98 "Hg2 mi
9:00 PM53 °FOvercast.3 mph91%29.96 "Hg5 mi
8:00 PM58 °FOvercast.1 mph85%29.94 "Hg6 mi
7:00 PM59 °FOvercast.1 mph85%29.92 "Hg6 mi
6:00 PM57 °FRain showers. Overcast.1 mph87%29.90 "Hg6 mi
5:00 PM59 °FPartly sunny.5 mph83%29.88 "Hg6 mi
4:00 PM59 °FFog.6 mph85%29.88 "Hg4 mi
3:00 PM59 °FFog.6 mph83%29.87 "Hg4 mi
Weather by CustomWeather, © 2014

See weather overview